Preview of NWS' New Version of Forecast
This preview is not operational and should not be used for support decisions.

Regional Weather Roundup (RWR)

Issued by National Weather Service (NWS)

                            
000
ASUS43 KMKX 201921
RWRWI 

WISCONSIN REGIONAL WEATHER ROUNDUP
NATIONAL WEATHER SERVICE MILWAUKEE/SULLIVAN WI
200 PM CDT TUE AUG 20 2019

NOTE: "FAIR" INDICATES FEW OR NO CLOUDS BELOW 12,000 FEET WITH NO
SIGNIFICANT WEATHER AND/OR OBSTRUCTIONS TO VISIBILITY.

WIZ001-002-006>008-014>016-023>028-202000-
NORTHWEST WISCONSIN
  
CITY           SKY/WX    TMP DP  RH WIND       PRES   REMARKS
SUPERIOR ARPT  FAIR      78  63  59 W12G17    29.91F HX  80           
ASHLAND        FAIR      75  62  64 W7        29.92F                  
HAYWARD        FAIR      72  61  68 VRB5      29.95S                  
SIREN          FAIR      76  63  64 NW14G20   29.95F                  
CUMBERLAND     FAIR      72  61  68 W15G24    29.96R                  
RICE LAKE      FAIR      73  56  55 W8        29.96R                  
CHETEK         FAIR      73  65  75 NW7       29.93S                  
LADYSMITH      FAIR      71  64  78 NW7       29.94R                  
EAU CLAIRE     FAIR      70  62  76 W20G30    29.89R                  
MENOMONIE      FAIR      70  61  73 W12G20    29.92R                  
NEW RICHMOND   FAIR      75  63  65 SW10G16   29.94S                  
OSCEOLA        FAIR      77  66  68 SW12      29.98S                  
$$
 
WIZ003>005-009-010-017-018-202000-
NORTH CENTRAL WISCONSIN
  
CITY           SKY/WX    TMP DP  RH WIND       PRES   REMARKS
MANITOWISH WTR FAIR      73  60  63 W5        29.95R                  
ARBOR VITAE    FAIR      73  62  68 S7        29.94F                  
WOODRUFF       FAIR      73  62  68 S7        29.94F                  
RHINELANDER    FAIR      72  58  61 S5        29.95F                  
EAGLE RIVER    FAIR      73  55  54 CALM      29.94F                  
LAND O LAKES   FAIR      75  56  51 SW6       29.97R                  
PHILLIPS       FAIR      71  60  69 CALM      29.93S                  
TOMAHAWK       FAIR      72  62  70 CALM      29.94S                  
MEDFORD        FAIR      69  62  77 E6        29.91S                  
MERRILL        FAIR      73  62  68 S5        29.95R                  
$$
 
WIZ029-030-035-036-043>047-202000-
CENTRAL WISCONSIN
  
CITY           SKY/WX    TMP DP  RH WIND       PRES   REMARKS
WAUSAU         FAIR      73  61  65 E5G26     29.89F                  
MOSINEE        PTSUNNY   73  64  73 S14       29.92F                  
MARSHFIELD     FAIR      74  63  68 S18G25    29.89F                  
STEVENS POINT  FAIR      76  61  61 S13       29.90F                  
WAUPACA        FAIR      83  64  52 S7        29.95F HX  84           
WAUTOMA        PTSUNNY   79  68  69 W7        29.99F HX  81           
WISC RAPIDS    FAIR      77  64  64 S8        29.97F                  
CAMP DOUGLAS   CLOUDY    79  70  73 NW8       30.00F HX  81           
$$
 
WIZ011>013-019>022-031-037>040-048>050-202000-
NORTHEAST WISCONSIN
  
CITY           SKY/WX    TMP DP  RH WIND       PRES   REMARKS
ANTIGO         FAIR      72  60  66 S3        29.96R                  
SHAWANO        FAIR      79  63  57 S5        29.92F HX  80           
OCONTO         FAIR      80  61  51 SW6       29.92F HX  81           
STURGEON BAY   FAIR      78  66  66 W7        29.98F HX  80           
GREEN BAY      PTSUNNY   82  64  54 W9        29.97F HX  83           
MANITOWOC      FAIR      77  68  73 SW5       29.99F                  
APPLETON       MOSUNNY   79  64  61 W6        29.99S HX  81           
CLINTONVILLE   FAIR      81  58  46 S9        29.91F HX  81           
OSHKOSH        CLOUDY    79  69  71 VRB3      29.99S HX  81           
$$
 
WIZ032>034-041-042-053>061-202000-
SOUTHWEST WISCONSIN
  
CITY           SKY/WX    TMP DP  RH WIND       PRES   REMARKS
LA CROSSE      LGT RAIN  76  64  66 SE20G33   29.84F                  
SPARTA         FAIR      73  64  71 E16       29.87F                  
VIROQUA        FAIR      80  69  68 N3        29.98F HX  83           
BOSCOBEL       PTSUNNY   83  66  56 N7        30.03R HX  85           
PRAIRIE DU CHI FAIR      80  66  61 E7        30.01F HX  82           
PLATTEVILLE    PTSUNNY   77  71  80 NW12      30.07R                  
$$

WIZ056-057-062-063-064-067-068-202000-
SOUTH CENTRAL WISCONSIN
  
CITY           SKY/WX    TMP DP  RH WIND       PRES   REMARKS
REEDSBURG      FAIR      81  68  63 NW5       29.99F HX  84           
BARABOO/DELLS  FAIR      80  65  59 W5        30.00F HX  82           
LONE ROCK      FAIR      82  67  60 VRB5      30.02R HX  84           
MINERAL POINT  FAIR      81  72  74 E13       30.06R HX  84           
MADISON        PTSUNNY   79  70  74 N5        29.99S HX  82           
MIDDLETON      FAIR      81  -8   3 N7        30.02R                  
WATERTOWN      FAIR      77  74  88 E3        29.99S                  
MONROE         FAIR      77  72  86 N6        30.00R                  
JANESVILLE     LGT RAIN  73  73 100 NE6       29.98R                  
$$
 
WIZ051-052-058>065-066-070>072-202000-
SOUTHEAST WISCONSIN
  
CITY           SKY/WX    TMP DP  RH WIND       PRES   REMARKS
MILWAUKEE      LGT RAIN  74  70  87 NE6       30.00R                  
WAUKESHA       CLOUDY    73  68  83 CALM      30.02R                  
MILWAUKEE/TIMM MOSUNNY   79  63  57 CALM      30.01R HX  80           
RACINE         CLOUDY    73  69  87 NW3       30.00S                  
KENOSHA        LGT RAIN  75  74  96 S6        30.02R FOG              
FOND DU LAC    PTSUNNY   81  69  67 SW3       30.00S HX  84           
SHEBOYGAN      FAIR      78  68  71 S6        29.99S HX  80           
WEST BEND      FAIR      77  70  78 CALM      30.00F                  
JUNEAU         FAIR      75  71  85 CALM      30.01S                  
$$

LSZ147-162-202000-
LAKE SUPERIOR
  
STATION/POSITION TIME  TEMP    WIND        PRES    WAVE
                       AIR SEA DIR/SP/G            HT/PER
                 (UTC) (F)     (DEG/KT/KT) (MB)    (FT/S)
W MID LAKE BUOY  1850   65 64  190/  6/  8 1011.9F   1/ 3
DEVILS ISLAND    1900   70     240/ 15/ 17 1012.0F
SAXON HARBOR     1840   73     300/  1/  3 1012.5F
$$
 
LMZ867-665-643>646-202000-
LAKE MICHIGAN
  
STATION/POSITION TIME  TEMP    WIND        PRES    WAVE
                       AIR SEA DIR/SP/G            HT/PER
                 (UTC) (F)     (DEG/KT/KT) (MB)    (FT/S)
S GREEN BAY BUOY 1700   76 71  220/  4/  4 1015.8
N MID LAKE BUOY  1900   70 70  170/  4/  6 1015.1
NORTHPORT PIER   1840   72     120/  3/  5 1014.9F
KEWAUNEE LAKESHO 1848   70     170/  4/  5 1014.7S
SHEBOYGAN LAKESH 1900   71     150/  7/  7 1015.7F
PORT WASHINGTON  1840   74      70/  3/  5 1016.9R
ATWATER BUOY     1900   71 71   30/  4/  4 1016.3    1/ 3
S MID LAKE BUOY  1900   74 74  220/  8/ 10 1015.6
KENOSHA   LAKESH 1900   74     200/  8/ 11 1016.3
$$

TC  - TEMPERATURE IN CELSIUS
VSB - VISIBILITY IN STATUTE MILES
WCI - WIND CHILL INDEX
HX  - HEAT INDEX